| time (UTC) | temp F | wind direction | speed knots | gust knots | rain 1hr in | rain 24hr in | rain mn in | humidity % | barometer mb |
| 20260902160031 | 58 | 17 | 1.7 | 4.3 | 0.00 | 0.00 | 0.00 | 76 | 1010.7 |
| 20260902154647 | 58 | 12 | 1.7 | 3.5 | 0.00 | 0.00 | 0.00 | 79 | 1010.9 |
| 20260902153029 | 56 | 349 | 0.0 | 2.6 | 0.00 | 0.00 | 0.00 | 82 | 1011.0 |
| 20260902151532 | 55 | 85 | 0.0 | 1.7 | 0.00 | 0.00 | 0.00 | 84 | 1010.9 |
| 20260902150030 | 55 | 99 | 0.0 | 2.6 | 0.00 | 0.00 | 0.00 | 86 | 1011.1 |
| 20260902144530 | 52 | 151 | 0.9 | 4.3 | 0.00 | 0.00 | 0.00 | 89 | 1011.2 |
| 20260902143108 | 51 | 152 | 0.0 | 2.6 | 0.00 | 0.00 | 0.00 | 90 | 1011.3 |
| 20260902141531 | 49 | 148 | 1.7 | 3.5 | 0.00 | 0.00 | 0.00 | 90 | 1011.3 |
| 20260902140031 | 48 | 157 | 0.9 | 4.3 | 0.00 | 0.00 | 0.00 | 89 | 1011.4 |
| 20260902134531 | 47 | 116 | 0.0 | 4.3 | 0.00 | 0.00 | 0.00 | 89 | 1011.3 |
| 20260902131644 | 46 | 187 | 1.7 | 4.3 | 0.00 | 0.00 | 0.00 | 87 | 1011.5 |
| 20260902130032 | 46 | 158 | 1.7 | 4.3 | 0.00 | 0.00 | 0.00 | 85 | 1011.4 |
| 20260902124606 | 47 | 148 | 1.7 | 3.5 | 0.00 | 0.00 | 0.00 | 83 | 1011.5 |
| 20260902123033 | 49 | 196 | 1.7 | 4.3 | 0.00 | 0.00 | 0.00 | 81 | 1011.5 |
| 20260902121531 | 52 | 144 | 2.6 | 4.3 | 0.00 | 0.00 | 0.00 | 79 | 1011.7 |
| 20260902120106 | 52 | 325 | 2.6 | 5.2 | 0.00 | 0.00 | 0.00 | 78 | 1011.7 |
| 20260902111531 | 55 | 303 | 3.5 | 10.4 | 0.00 | 0.00 | 0.00 | 73 | 1011.5 |
| 20260902110030 | 56 | 309 | 3.5 | 11.3 | 0.00 | 0.00 | 0.00 | 72 | 1011.6 |
| 20260902103033 | 56 | 293 | 5.2 | 12.2 | 0.00 | 0.00 | 0.00 | 73 | 1012.0 |
| 20260902101531 | 56 | 286 | 4.3 | 11.3 | 0.00 | 0.00 | 0.00 | 73 | 1012.1 |
| 20260902100032 | 57 | 283 | 4.3 | 9.6 | 0.00 | 0.00 | 0.00 | 72 | 1012.3 |
| 20260902094530 | 57 | 276 | 4.3 | 12.2 | 0.00 | 0.00 | 0.00 | 72 | 1012.4 |
| 20260902093031 | 57 | 279 | 4.3 | 12.2 | 0.00 | 0.00 | 0.00 | 72 | 1012.5 |
| 20260902084530 | 57 | 279 | 4.3 | 11.3 | 0.00 | 0.00 | 0.00 | 72 | 1012.5 |
| 20260902083032 | 57 | 294 | 3.5 | 9.6 | 0.00 | 0.00 | 0.00 | 73 | 1012.6 |
| 20260902081530 | 57 | 287 | 3.5 | 9.6 | 0.00 | 0.00 | 0.00 | 73 | 1012.6 |
| 20260902080029 | 57 | 322 | 3.5 | 7.8 | 0.00 | 0.00 | 0.00 | 74 | 1012.6 |
| 20260902074606 | 57 | 301 | 4.3 | 9.6 | 0.00 | 0.00 | 0.00 | 74 | 1012.6 |
| 20260902073030 | 57 | 306 | 3.5 | 8.7 | 0.00 | 0.00 | 0.00 | 74 | 1012.7 |
| 20260902071532 | 57 | 316 | 4.3 | 11.3 | 0.00 | 0.00 | 0.00 | 73 | 1012.9 |
| 20260902070029 | 58 | 325 | 4.3 | 11.3 | 0.00 | 0.00 | 0.00 | 73 | 1013.1 |
| 20260902064532 | 58 | 307 | 4.3 | 11.3 | 0.00 | 0.00 | 0.00 | 72 | 1013.4 |
| 20260902063029 | 59 | 310 | 3.5 | 7.0 | 0.00 | 0.00 | 0.00 | 72 | 1013.6 |
| 20260902061531 | 59 | 312 | 4.3 | 16.5 | 0.00 | 0.00 | 0.00 | 71 | 1013.6 |
| 20260902060031 | 59 | 291 | 2.6 | 10.4 | 0.00 | 0.00 | 0.00 | 71 | 1013.6 |
| 20260902054529 | 59 | 195 | 0.0 | 6.1 | 0.00 | 0.00 | 0.00 | 70 | 1013.6 |
| 20260902053031 | 60 | 320 | 1.7 | 6.1 | 0.00 | 0.00 | 0.00 | 69 | 1013.4 |
| 20260902051529 | 59 | 263 | 3.5 | 8.7 | 0.00 | 0.00 | 0.00 | 70 | 1013.4 |
| 20260902050145 | 59 | 253 | 2.6 | 12.2 | 0.00 | 0.00 | 0.00 | 71 | 1013.3 |
| 20260902044530 | 59 | 281 | 1.7 | 6.1 | 0.00 | 0.00 | 0.00 | 70 | 1013.2 |
| 20260902043147 | 59 | 208 | 1.7 | 6.1 | 0.00 | 0.00 | 0.00 | 70 | 1013.1 |
| 20260902041605 | 59 | 255 | 3.5 | 9.6 | 0.00 | 0.00 | 0.00 | 69 | 1013.0 |
| 20260902040029 | 60 | 262 | 3.5 | 13.0 | 0.00 | 0.00 | 0.00 | 69 | 1012.8 |
| 20260902034607 | 60 | 293 | 4.3 | 12.2 | 0.00 | 0.00 | 0.00 | 69 | 1012.5 |
| 20260902033029 | 60 | 273 | 3.5 | 7.8 | 0.00 | 0.00 | 0.00 | 68 | 1012.5 |
| 20260902031531 | 60 | 296 | 3.5 | 12.2 | 0.00 | 0.00 | 0.00 | 67 | 1012.4 |
| 20260902030106 | 60 | 277 | 6.1 | 18.2 | 0.00 | 0.00 | 0.00 | 67 | 1012.4 |
| 20260902024609 | 60 | 259 | 4.3 | 12.2 | 0.00 | 0.00 | 0.00 | 68 | 1012.7 |
| 20260902021532 | 61 | 279 | 3.5 | 11.3 | 0.00 | 0.00 | 0.00 | 64 | 1012.5 |
| 20260902013032 | 64 | 277 | 6.1 | 13.0 | 0.00 | 0.00 | 0.00 | 60 | 1012.1 |
| 20260902011530 | 65 | 282 | 7.8 | 20.9 | 0.00 | 0.00 | 0.00 | 59 | 1011.9 |
| 20260902010030 | 66 | 292 | 7.0 | 15.6 | 0.00 | 0.00 | 0.00 | 59 | 1011.9 |
| 20260902003029 | 66 | 295 | 7.0 | 18.2 | 0.00 | 0.00 | 0.00 | 59 | 1011.5 |
| 20260902000108 | 67 | 276 | 6.1 | 14.8 | 0.00 | 0.00 | 0.00 | 60 | 1011.4 |
| 20260901234602 | 66 | 288 | 6.1 | 14.8 | 0.00 | 0.00 | 0.00 | 59 | 1011.4 |
| 20260901233031 | 67 | 317 | 6.1 | 17.4 | 0.00 | 0.00 | 0.00 | 57 | 1011.3 |
| 20260901230030 | 69 | 314 | 8.7 | 18.2 | 0.00 | 0.00 | 0.00 | 56 | 1011.1 |
| 20260901223107 | 68 | 303 | 9.6 | 22.6 | 0.00 | 0.00 | 0.00 | 56 | 1010.9 |
| 20260901221530 | 70 | 286 | 9.6 | 21.7 | 0.00 | 0.00 | 0.00 | 56 | 1010.8 |
| 20260901220030 | 69 | 300 | 7.8 | 18.2 | 0.00 | 0.00 | 0.00 | 56 | 1010.6 |
| 20260901214532 | 69 | 305 | 8.7 | 20.9 | 0.00 | 0.00 | 0.00 | 57 | 1010.4 |
| 20260901213105 | 69 | 315 | 7.8 | 16.5 | 0.00 | 0.00 | 0.00 | 57 | 1010.6 |
| 20260901211531 | 68 | 301 | 8.7 | 20.9 | 0.00 | 0.00 | 0.00 | 57 | 1010.7 |
| 20260901210031 | 69 | 291 | 10.4 | 19.1 | 0.00 | 0.00 | 0.00 | 56 | 1010.8 |
| 20260901203031 | 69 | 294 | 7.8 | 19.1 | 0.00 | 0.00 | 0.00 | 54 | 1011.1 |
| 20260901201643 | 69 | 300 | 7.8 | 19.1 | 0.00 | 0.00 | 0.00 | 53 | 1011.0 |
| 20260901194534 | 69 | 295 | 7.0 | 17.4 | 0.00 | 0.00 | 0.00 | 53 | 1011.4 |
| 20260901193028 | 70 | 292 | 7.0 | 16.5 | 0.00 | 0.00 | 0.00 | 52 | 1011.7 |
| 20260901184607 | 72 | 300 | 5.2 | 14.8 | 0.00 | 0.00 | 0.00 | 54 | 1012.0 |
| 20260901183107 | 71 | 235 | 2.6 | 9.6 | 0.00 | 0.00 | 0.00 | 56 | 1012.1 |
| 20260901180030 | 69 | 251 | 1.7 | 5.2 | 0.00 | 0.00 | 0.00 | 62 | 1012.4 |
| 20260901174606 | 66 | 245 | 2.6 | 6.1 | 0.00 | 0.00 | 0.00 | 67 | 1012.5 |
| 20260901173029 | 65 | 233 | 0.9 | 4.3 | 0.00 | 0.00 | 0.00 | 70 | 1012.6 |
| 20260901171604 | 63 | 248 | 0.9 | 4.3 | 0.00 | 0.00 | 0.00 | 74 | 1012.6 |
| 20260901170032 | 61 | 289 | 0.9 | 2.6 | 0.00 | 0.00 | 0.00 | 79 | 1012.6 |
| 20260901164530 | 60 | 174 | 0.0 | 1.7 | 0.00 | 0.00 | 0.00 | 83 | 1012.7 |
| 20260901163032 | 59 | 85 | 0.9 | 3.5 | 0.00 | 0.00 | 0.00 | 88 | 1012.6 |